Regional Weather Roundup
Issued by NWS Sterling, VA

Home | Current Version | Previous Version | Text Only | Print | Product List | Glossary Off
Versions: 1 2 3 4 5 6 7 8 9 10 11 12 13 14 15 16 17 18 19 20 21 22 23 24 25 26 27 28 29 30 31 32 33 34 35 36 37 38 39 40 41 42 43 44 45 46 47 48 49 50

000
ASUS41 KLWX 300810
RWRLWX

REGIONAL WEATHER ROUNDUP
NATIONAL WEATHER SERVICE BALTIMORE MD/WASHINGTON DC
400 AM EDT TUE SEP 30 2014

Note: "FAIR" indicates few or no clouds below 12,000 feet
with no significant weather and/or obstructions to visibility.
 TC=TEMPERATURE CELSIUS

 * =Non NWS site. Station does not report precipitation (e.g. rain,
    snow, etc.), thunder, or fog.

DCZ001-MDZ009-015-VAZ040>042-051-053>054-300900-
WASHINGTON METRO

CITY           SKY/WX    TMP DP  RH WIND       PRES   REMARKS
WASHINGTON NAT CLOUDY    68  63  84 S7        29.90F
DULLES         FOG       63  63 100 SW7       29.91F VSB 1/4
ANDREWS AFB    FOG       64  63  94 SW6       29.90F VSB 3/4
QUANTICO       CLOUDY    64  62  93 W5        29.92S
COLLEGE PARK*  MOCLDY    66  64  94 CALM      29.90S
LEESBURG*      FOG       63  63 100 SW3       29.91S VSB 1/4
MANASSAS*      CLOUDY    64  64 100 S5        29.91S
GAITHERSBURG*  CLOUDY    64  63  94 CALM      29.94F

$$

MDZ006>007-011-014-300900-
BALTIMORE METRO

CITY           SKY/WX    TMP DP  RH WIND       PRES   REMARKS
BWI AIRPORT    CLOUDY    65  64  97 CALM      29.90S FOG
MD SCIENCE CTR   N/A     66  64  93 MISG      29.91S
MARTIN STATE   CLOUDY    64  64 100 CALM      29.92S FOG
ANNAPOLIS        N/A     66  63  90 MISG      29.90S
FORT MEADE*    CLOUDY    63  61  94 CALM      29.93S

$$

MDZ012-015-019>023-300900-
MARYLAND EASTERN SHORE

CITY           SKY/WX    TMP DP  RH WIND       PRES   REMARKS
OCEAN CITY     CLOUDY   N/A N/A N/A CALM      29.92F
SALISBURY      CLOUDY    66  61  84 CALM      29.91F
BAY BRIDGE AP*   N/A     64  64 100 CALM      29.90S
CAMBRIDGE*     CLOUDY    63  61  94 CALM      29.90F VSB 3/4
EASTON*        CLOUDY    65  65 100 S3        29.94F FOG

$$

MDZ017>025-300900-
SOUTHERN MARYLAND

CITY           SKY/WX    TMP DP  RH WIND       PRES   REMARKS
PATUXENT RIVER MOCLDY    63  62  97 S3        29.90S
ST INIGOES     CLOUDY    64  60  87 CALM      29.90F
LEONARDTOWN*   MOCLDY    61  59  94 CALM      29.92S

$$

MDZ003>005-300900-
NORTH CENTRAL MARYLAND

CITY           SKY/WX    TMP DP  RH WIND       PRES   REMARKS
FREDERICK*     CLOUDY    66  64  94 CALM      29.93S FOG
HAGERSTOWN APT CLEAR     63  59  87 CALM      29.90F FOG
WESTMINSTER*   CLOUDY    64  61  88 CALM      29.91F

$$

MDZ501>502-300900-
WESTERN MARYLAND

CITY           SKY/WX    TMP DP  RH WIND       PRES   REMARKS
OAKLAND*       PTCLDY    55 N/A N/A SW6       29.97F
CUMBERLAND*    NOT AVBL

$$

VAZ025>031-300900-
SHENANDOAH VALLEY

CITY           SKY/WX    TMP DP  RH WIND       PRES   REMARKS
WINCHESTER*    CLEAR     59  57  94 CALM      29.90F
STAUNTON*      MOCLDY    53  51  94 CALM      29.95S FOG

$$

WVZ021-048>050-054>055-300900-
EASTERN WEST VIRGINIA PANHANDLE

CITY           SKY/WX    TMP DP  RH WIND       PRES   REMARKS
MARTINSBURG    FOG       59  55  87 CALM      29.90S VSB 1/4
PETERSBURG*    MOCLDY   N/A N/A N/A CALM      29.93F FOG

$$

VAZ036>039-050-300900-
CENTRAL FOOTHILLS

CITY           SKY/WX    TMP DP  RH WIND       PRES   REMARKS
CHARLOTTESVILL FOG       63  62  97 CALM      29.91F VSB 1/4
ORANGE*        FOG       63  63 100 CALM      29.92F VSB 1

$$

VAZ055>057-300900-
NORTH AND CENTRAL PIEDMONT

CITY           SKY/WX    TMP DP  RH WIND       PRES   REMARKS
FREDERICKSBRG* CLOUDY    65  65 100 S3        29.90F
STAFFORD*      CLOUDY    63  63 100 CALM      29.95S FOG

$$

NCZ024-NYZ072-PAZ021-071-VAZ022-071-300900-
OTHER REGIONAL OBSERVATIONS

CITY           SKY/WX    TMP DP  RH WIND       PRES   REMARKS
NEW YORK CITY  CLOUDY    69  56  62 W3        29.95S
PHILADELPHIA   CLOUDY    65  61  87 W3        29.92F
PITTSBURGH     CLEAR     56  53  90 CALM      29.89F
ROANOKE        FOG       58  57  97 CALM      29.95F VSB 1/2
RICHMOND       CLOUDY    65  63  93 SW3       29.91F FOG
RALEIGH        FOG       62  60  93 CALM      29.93F VSB 1/4

$$

ANZ530>537-300900-
MARINE OBSERVATIONS

STATION/POSITION TIME  TEMP    WIND        PRES
                       AIR SEA DIR/SP/G
                 (UTC) (F)     (DEG/KT/KT) (MB)
THOMAS PT LIGHT  0800   66 71  250/  8/  9 1013.6S
BALT KEY BRIDGE  0800   66     200/  4/  4 1012.4F
COVE POINT       0800   65     200/  5/  7 1012.6R
LEWISETTA        0800   65 71  230/  4/  4 1012.2F
SOLOMONS ISLAND  0800      72                N/A
PINEY POINT      0800          180/  3/  4   N/A

$$



USA.gov is the U.S. government's official web portal to all federal, state and local government web resources and services.